• In Hungary
  • List of Countries
  • For 7 days
  • Water Temperature
  • Satellite Maps
  • Weather Map
  • News
  • Weather Widgets
  • user-avatar
    Login

    Hourly Weather Krzyze

    Today, 20 June, Wednesday

    Time Temperature Precipitation Wind Pressure Humidity
    00:00 +15°C° 0 mm 2 mps 753 mmHg 91%
    01:00 +15°C° 0 mm 2 mps 753 mmHg 91%
    02:00 +15°C° 0 mm 2 mps 753 mmHg 91%
    03:00 +13°C° 0 mm 3 mps 753 mmHg 92%
    04:00 +13°C° 0 mm 3 mps 753 mmHg 92%
    05:00 +16°C° 0 mm 3 mps 753 mmHg 83%
    06:00 +17°C° 0 mm 4 mps 754 mmHg 74%
    07:00 +19°C° 0 mm 4 mps 754 mmHg 65%
    08:00 +20°C° 0 mm 5 mps 754 mmHg 61%
    09:00 +21°C° 0 mm 5 mps 754 mmHg 56%
    10:00 +22°C° 0 mm 5 mps 754 mmHg 51%
    11:00 +23°C° 0 mm 5 mps 754 mmHg 50%
    12:00 +23°C° 0 mm 5 mps 754 mmHg 48%
    13:00 +25°C° 0 mm 4 mps 754 mmHg 46%
    14:00 +25°C° 0 mm 4 mps 753 mmHg 47%
    15:00 +25°C° 0 mm 4 mps 753 mmHg 48%
    16:00 +26°C° 0 mm 3 mps 753 mmHg 49%
    17:00 +25°C° 0 mm 3 mps 753 mmHg 55%
    18:00 +23°C° 0 mm 2 mps 752 mmHg 61%
    19:00 +22°C° 0 mm 1 mps 752 mmHg 67%
    20:00 +21°C° 0 mm 1 mps 752 mmHg 69%
    21:00 +19°C° 0 mm 2 mps 752 mmHg 72%
    22:00 +18°C° 0 mm 2 mps 752 mmHg 74%
    23:00 +17°C° 0 mm 2 mps 751 mmHg 76%

    Tomorrow, 21 June, Thursday

    Time Temperature Precipitation Wind Pressure Humidity
    00:00 +17°C° 0 mm 2 mps 751 mmHg 78%
    01:00 +17°C° 0 mm 2 mps 751 mmHg 80%
    02:00 +18°C° 0 mm 2 mps 750 mmHg 81%
    03:00 +18°C° 0 mm 2 mps 750 mmHg 81%
    04:00 +19°C° 0 mm 2 mps 750 mmHg 81%
    05:00 +20°C° 0.1 mm 3 mps 749 mmHg 78%
    06:00 +21°C° 0.1 mm 4 mps 749 mmHg 76%
    07:00 +22°C° 0.1 mm 5 mps 749 mmHg 73%
    08:00 +23°C° 0.1 mm 5 mps 748 mmHg 69%
    09:00 +24°C° 0.1 mm 6 mps 747 mmHg 65%
    10:00 +26°C° 0.1 mm 6 mps 747 mmHg 60%
    11:00 +27°C° 0.2 mm 6 mps 746 mmHg 58%
    12:00 +28°C° 0.2 mm 7 mps 745 mmHg 56%
    13:00 +29°C° 0.2 mm 7 mps 744 mmHg 53%
    14:00 +28°C° 0.4 mm 6 mps 744 mmHg 59%
    15:00 +27°C° 0.4 mm 5 mps 743 mmHg 65%
    16:00 +26°C° 0.4 mm 5 mps 742 mmHg 71%
    17:00 +25°C° 0.7 mm 5 mps 741 mmHg 74%
    18:00 +23°C° 0.7 mm 5 mps 741 mmHg 78%
    19:00 +22°C° 0.7 mm 5 mps 741 mmHg 82%
    20:00 +20°C° 0.4 mm 5 mps 741 mmHg 85%
    21:00 +18°C° 0.4 mm 4 mps 741 mmHg 89%
    22:00 +14°C° 0.4 mm 4 mps 742 mmHg 93%
    23:00 +13°C° 0.4 mm 5 mps 742 mmHg 92%

    Day after tomorrow, 22 June, Friday

    Time Temperature Precipitation Wind Pressure Humidity
    00:00 +13°C° 0.4 mm 5 mps 742 mmHg 90%
    01:00 +12°C° 0.4 mm 5 mps 743 mmHg 89%
    02:00 +10°C° 0 mm 5 mps 743 mmHg 89%
    03:00 +9°C° 0 mm 6 mps 744 mmHg 88%
    04:00 +9°C° 0 mm 6 mps 744 mmHg 87%
    05:00 +9°C° 0 mm 6 mps 744 mmHg 81%
    06:00 +10°C° 0 mm 7 mps 744 mmHg 74%
    07:00 +11°C° 0 mm 7 mps 745 mmHg 68%
    08:00 +12°C° 0 mm 7 mps 744 mmHg 64%
    09:00 +13°C° 0 mm 8 mps 744 mmHg 60%
    10:00 +15°C° 0 mm 8 mps 744 mmHg 56%
    11:00 +15°C° 0.1 mm 8 mps 745 mmHg 56%
    12:00 +15°C° 0.1 mm 8 mps 745 mmHg 57%
    13:00 +15°C° 0.1 mm 8 mps 745 mmHg 57%
    14:00 +15°C° 0.2 mm 8 mps 745 mmHg 61%
    15:00 +15°C° 0.2 mm 8 mps 745 mmHg 64%
    16:00 +15°C° 0.2 mm 7 mps 745 mmHg 67%
    17:00 +15°C° 0.2 mm 6 mps 746 mmHg 72%
    18:00 +14°C° 0.2 mm 4 mps 746 mmHg 77%
    19:00 +13°C° 0.2 mm 3 mps 746 mmHg 81%
    20:00 +12°C° 0 mm 3 mps 746 mmHg 84%
    21:00 +11°C° 0 mm 3 mps 746 mmHg 86%
    22:00 +10°C° 0 mm 3 mps 747 mmHg 88%
    23:00 +9°C° 0 mm 3 mps 747 mmHg 87%

    23 June, Saturday

    Time Temperature Precipitation Wind Pressure Humidity
    00:00 +9°C° 0 mm 3 mps 746 mmHg 85%
    01:00 +9°C° 0 mm 3 mps 746 mmHg 84%
    02:00 +9°C° 0 mm 3 mps 746 mmHg 85%
    03:00 +9°C° 0 mm 3 mps 747 mmHg 87%
    04:00 +8°C° 0 mm 3 mps 747 mmHg 88%
    05:00 +10°C° 0.1 mm 4 mps 747 mmHg 86%
    06:00 +11°C° 0.1 mm 4 mps 747 mmHg 84%
    07:00 +12°C° 0.1 mm 5 mps 747 mmHg 82%
    08:00 +13°C° 0.3 mm 5 mps 747 mmHg 81%
    09:00 +13°C° 0.3 mm 5 mps 747 mmHg 80%
    10:00 +14°C° 0.3 mm 5 mps 747 mmHg 79%
    11:00 +14°C° 0.8 mm 5 mps 747 mmHg 80%
    12:00 +14°C° 0.8 mm 5 mps 746 mmHg 81%
    13:00 +14°C° 0.8 mm 5 mps 746 mmHg 83%
    14:00 +14°C° 0.7 mm 5 mps 746 mmHg 82%
    15:00 +15°C° 0.7 mm 5 mps 746 mmHg 81%
    16:00 +15°C° 0.7 mm 6 mps 747 mmHg 79%
    17:00 +14°C° 0.2 mm 5 mps 747 mmHg 82%
    18:00 +13°C° 0.2 mm 4 mps 747 mmHg 84%
    19:00 +13°C° 0.2 mm 3 mps 747 mmHg 86%
    20:00 +11°C° 0 mm 3 mps 747 mmHg 88%
    21:00 +10°C° 0 mm 3 mps 748 mmHg 91%
    22:00 +9°C° 0 mm 3 mps 748 mmHg 93%
    23:00 +9°C° 0 mm 3 mps 748 mmHg 93%

    24 June, Sunday

    Time Temperature Precipitation Wind Pressure Humidity
    00:00 +8°C° 0 mm 3 mps 748 mmHg 93%
    01:00 +8°C° 0 mm 3 mps 749 mmHg 92%
    02:00 +8°C° 0 mm 3 mps 749 mmHg 92%
    03:00 +9°C° 0 mm 3 mps 749 mmHg 92%
    04:00 +9°C° 0 mm 3 mps 749 mmHg 92%
    05:00 +10°C° 0 mm 3 mps 749 mmHg 87%
    06:00 +12°C° 0 mm 3 mps 750 mmHg 82%
    07:00 +14°C° 0 mm 3 mps 750 mmHg 77%
    08:00 +14°C° 0.3 mm 3 mps 750 mmHg 75%
    09:00 +15°C° 0.3 mm 4 mps 750 mmHg 74%
    10:00 +17°C° 0.3 mm 4 mps 750 mmHg 72%
    11:00 +17°C° 0.3 mm 4 mps 751 mmHg 69%
    12:00 +18°C° 0.3 mm 4 mps 751 mmHg 65%
    13:00 +19°C° 0.3 mm 5 mps 751 mmHg 62%
    14:00 +19°C° 0.1 mm 4 mps 751 mmHg 60%
    15:00 +19°C° 0.1 mm 4 mps 751 mmHg 57%
    16:00 +20°C° 0.1 mm 4 mps 751 mmHg 55%
    17:00 +19°C° 0 mm 3 mps 751 mmHg 60%
    18:00 +18°C° 0 mm 3 mps 751 mmHg 66%
    19:00 +17°C° 0 mm 2 mps 752 mmHg 71%
    20:00 +15°C° 0 mm 2 mps 752 mmHg 77%
    21:00 +14°C° 0 mm 2 mps 752 mmHg 83%
    22:00 +12°C° 0 mm 2 mps 753 mmHg 88%
    23:00 +10°C° 0 mm 2 mps 753 mmHg 90%

    25 June, Monday

    Time Temperature Precipitation Wind Pressure Humidity
    00:00 +10°C° 0 mm 2 mps 753 mmHg 91%
    01:00 +9°C° 0 mm 2 mps 753 mmHg 93%
    02:00 +9°C° 0 mm 2 mps 753 mmHg 91%
    03:00 +9°C° 0 mm 2 mps 753 mmHg 90%
    04:00 +10°C° 0 mm 1 mps 754 mmHg 89%
    05:00 +12°C° 0 mm 2 mps 754 mmHg 81%
    06:00 +14°C° 0 mm 2 mps 754 mmHg 73%
    07:00 +16°C° 0 mm 2 mps 754 mmHg 65%
    08:00 +18°C° 0 mm 2 mps 755 mmHg 61%
    09:00 +19°C° 0 mm 3 mps 755 mmHg 57%
    10:00 +21°C° 0 mm 3 mps 755 mmHg 53%
    11:00 +21°C° 0.2 mm 3 mps 755 mmHg 56%
    12:00 +21°C° 0.2 mm 3 mps 755 mmHg 58%
    13:00 +21°C° 0.2 mm 3 mps 755 mmHg 61%
    14:00 +21°C° 0.1 mm 3 mps 755 mmHg 60%
    15:00 +22°C° 0.1 mm 3 mps 755 mmHg 58%
    16:00 +22°C° 0.1 mm 3 mps 755 mmHg 56%
    17:00 +21°C° 0 mm 3 mps 755 mmHg 62%
    18:00 +20°C° 0 mm 2 mps 755 mmHg 67%
    19:00 +20°C° 0 mm 1 mps 755 mmHg 72%
    20:00 +19°C° 0 mm 1 mps 756 mmHg 76%
    21:00 +18°C° 0 mm 1 mps 756 mmHg 80%
    22:00 +15°C° 0 mm 1 mps 756 mmHg 84%
    23:00 +15°C° 0 mm 2 mps 756 mmHg 87%
    Show more